Weather History for Douglas, WY

Change the Weather History Date:

Friday, December 28, 2012

  Actual Average Record
Temperature  
Mean Temperature 14 °F 24 °F  
Max Temperature 27 °F 38 °F 58 °F (2002)
Min Temperature 0 °F 10 °F -12 °F (2007)
Degree Days  
Heating Degree Days 51 41  
Month to date heating degree days 929 1144  
Since 1 July heating degree days 2476 2966  
Cooling Degree Days 0 0  
Month to date cooling degree days 0 0  
Year to date cooling degree days 831 486  
Moisture  
Dew Point 8 °F    
Average Humidity 72    
Maximum Humidity 84    
Minimum Humidity 60    
Precipitation  
Precipitation 0.00 in 0.01 in 0.12 in (2006)
Month to date precipitation 0.06 0.36  
Year to date precipitation 5.32 13.35  
Sea Level Pressure  
Sea Level Pressure 30.15 in    
Wind  
Wind Speed 9 mph (NW)    
Max Wind Speed 22 mph    
Max Gust Speed 26 mph    
Visibility 10 miles    
Events      
T = Trace of Precipitation, MM = Missing Value Source: NWS Daily Summary

Daily Weather History Graph

Daily Weather History Graph

Search for Another Location

Airport:

Trip Planner

Search our weather history database for the weather conditions in past years. The results will help you decide how hot, cold, wet, or windy it might be!

Date:

Astronomy

Dec. 28, 2012 Rise Set
Actual Time 7:31 AM MST 4:35 PM MST
Civil Twilight 6:59 AM MST 5:07 PM MST
Nautical Twilight 6:23 AM MST 5:43 PM MST
Astronomical Twilight 5:49 AM MST 6:17 PM MST
Moon 5:15 PM MST (12/28) 7:26 AM MST (12/28)
Length of Visible Light 10h 08m
Length of Day
9h 03m
Full, 100% of the Moon is Illuminated
Dec 28
Full
Jan 4
Last Quarter
Jan 11
New
Jan 18
First Quarter
Jan 26
Full

Hourly Weather History & Observations

Time (MST) Temp. Windchill Dew Point Humidity Pressure Visibility Wind Dir Wind Speed Gust Speed Precip Events Conditions
12:53 AM 17.1 °F 3.6 °F 12.0 °F 81% 30.04 in 10.0 mi NW 12.7 mph - N/A   Overcast
1:53 AM 18.0 °F 4.8 °F 12.0 °F 78% 30.05 in 10.0 mi NNW 12.7 mph - N/A   Overcast
2:53 AM 16.0 °F 6.3 °F 10.0 °F 77% 30.06 in 10.0 mi NNW 6.9 mph - N/A   Overcast
3:53 AM 12.9 °F 0.7 °F 8.1 °F 81% 30.07 in 10.0 mi NW 9.2 mph - N/A   Mostly Cloudy
4:53 AM 9.0 °F -3.2 °F 5.0 °F 84% 30.09 in 10.0 mi NW 8.1 mph - N/A   Clear
5:53 AM 12.9 °F -2.2 °F 7.0 °F 77% 30.10 in 10.0 mi NW 13.8 mph - N/A   Scattered Clouds
6:53 AM 14.0 °F -2.0 °F 8.1 °F 77% 30.12 in 10.0 mi NW 16.1 mph 23.0 mph N/A   Mostly Cloudy
7:53 AM 16.0 °F 1.1 °F 9.0 °F 74% 30.13 in 10.0 mi NW 15.0 mph - N/A   Overcast
8:53 AM 17.1 °F 7.6 °F 9.0 °F 71% 30.14 in 10.0 mi NW 6.9 mph - N/A   Overcast
9:53 AM 19.0 °F 10.0 °F 10.9 °F 71% 30.16 in 10.0 mi NW 6.9 mph - N/A   Overcast
10:53 AM 23.0 °F 11.1 °F 12.9 °F 65% 30.14 in 10.0 mi WNW 12.7 mph - N/A   Overcast
11:53 AM 25.0 °F 14.2 °F 15.1 °F 66% 30.09 in 10.0 mi WNW 11.5 mph - 0.01 in   Mostly Cloudy
12:53 PM 26.1 °F 15.6 °F 15.1 °F 63% 30.07 in 10.0 mi WNW 11.5 mph - 0.03 in   Mostly Cloudy
1:53 PM 27.0 °F 15.6 °F 16.0 °F 63% 30.07 in 10.0 mi WNW 13.8 mph - 0.01 in   Scattered Clouds
2:53 PM 26.1 °F 13.6 °F 15.1 °F 63% 30.11 in 10.0 mi NW 16.1 mph - N/A   Clear
3:53 PM 24.1 °F 15.2 °F 12.9 °F 62% 30.14 in 10.0 mi North 8.1 mph - N/A   Clear
4:53 PM 14.0 °F 2.9 °F 7.0 °F 74% 30.21 in 10.0 mi North 8.1 mph - N/A   Clear
5:53 PM 12.9 °F - 6.1 °F 74% 30.22 in 10.0 mi Calm Calm - N/A   Clear
6:53 PM 9.0 °F -2.2 °F 3.0 °F 77% 30.25 in 10.0 mi WNW 6.9 mph - N/A   Clear
7:53 PM 6.1 °F - 1.0 °F 80% 30.26 in 10.0 mi Calm Calm - N/A   Clear
8:53 PM 5.0 °F - -0.0 °F 80% 30.27 in 10.0 mi Calm Calm - N/A   Clear
9:53 PM 6.1 °F - -0.0 °F 76% 30.27 in 10.0 mi Calm Calm - N/A   Clear
10:53 PM -0.0 °F -13.0 °F -5.1 °F 79% 30.29 in 10.0 mi North 6.9 mph - N/A   Clear
11:53 PM 3.0 °F -9.3 °F -2.0 °F 80% 30.28 in 10.0 mi NNW 6.9 mph - N/A   Clear